TEVEL2-2

Last updated on Sun Jun 21 2026 00:03:20 GMT+0000 (Coordinated Universal Time)

1 63219U 25052K 26171.44087273 .00015148 00000+0 46281-3 0 9999 2 63219 97.3872 67.3917 0004899 108.0209 252.1568 15.33968526 70590
UTC large
Height (km)
Speed (km/s)
/
Latitude / Longitude
Inclination (degrees)
Orbital Period (minutes)
Azimuth
Elevation
Range (km)
Doppler Factor

Next 0 passes for location: London (51.5072 / 0.1276)

No passes found over London.
TEVEL2-2